Akron, CO

8:53 AM MDT on August 23, 2017 (GMT -0600)
Akron-Washington County

Weather History for KAKO - February, 2014

Change the Weather History Date:

Saturday, February 22, 2014

  Actual Average Record
Temperature  
Mean Temperature 33 °F 33 °F  
Max Temperature 45 °F 45 °F 72 °F (1958)
Min Temperature 20 °F 21 °F 0 °F (1955)
Degree Days  
Heating Degree Days 32    
Month to date heating degree days 929  
Cooling Degree Days 0    
Month to date cooling degree days 0  
Moisture  
Dew Point 24 °F    
Average Humidity 70    
Maximum Humidity 100    
Minimum Humidity 39    
Precipitation  
Precipitation 0.04 in 0.02 in 0.11 in (1960)
Month to date precipitation 0.15 0.32  
Year to date precipitation 0.39 0.62  
Sea Level Pressure  
Sea Level Pressure 29.96 in    
Wind  
Wind Speed 10 mph (ESE)    
Max Wind Speed 25 mph    
Max Gust Speed 29 mph    
Visibility 6 miles    
Events Snow    
T = Trace of Precipitation, MM = Missing Value Source: NWS Daily Summary

Daily Weather History Graph

Daily Weather History Graph

Search for Another Location

Airport or City:

Trip Planner

Search our weather history database for the weather conditions in past years. The results will help you decide how hot, cold, wet, or windy it might be!

Date:

Astronomy

Feb. 22, 2014 Rise Set
Actual Time 6:36 AM MST 5:36 PM MST
Civil Twilight 6:09 AM MST 6:04 PM MST
Nautical Twilight 5:37 AM MST 6:35 PM MST
Astronomical Twilight 5:06 AM MST 7:07 PM MST
Moon 12:34 AM MST (2/22) 10:49 AM MST (2/22)
Length of Visible Light 11h 55m
Length of Day
11h 00m
Waning Gibbous, 49% of the Moon is Illuminated
Feb 22
Waning Gibbous
Mar 1
New
Mar 8
First Quarter
Mar 16
Full
Mar 23
Last Quarter

Hourly Weather History & Observations

Time (MST) Temp. Windchill Dew Point Humidity Pressure Visibility Wind Dir Wind Speed Gust Speed Precip Events Conditions
12:53 AM 25.0 °F 15.5 °F 24.1 °F 96% 29.90 in 10.0 mi NNE 9.2 mph - N/A   Clear
1:53 AM 21.9 °F 14.5 °F 21.0 °F 96% 29.91 in 10.0 mi NNE 5.8 mph - N/A   Clear
2:53 AM 21.9 °F 13.4 °F 19.0 °F 89% 29.91 in 10.0 mi South 6.9 mph - N/A   Clear
3:53 AM 21.9 °F 13.4 °F 21.0 °F 96% 29.91 in 10.0 mi South 6.9 mph - N/A   Clear
4:53 AM 19.9 °F 12.1 °F 18.0 °F 92% 29.93 in 10.0 mi SW 5.8 mph - N/A   Clear
5:53 AM 19.9 °F 14.9 °F 19.0 °F 96% 29.94 in 10.0 mi South 3.5 mph - N/A   Clear
6:53 AM 19.9 °F 14.9 °F 19.0 °F 96% 29.95 in 10.0 mi SSW 3.5 mph - N/A   Clear
7:53 AM 25.0 °F 19.3 °F 23.0 °F 92% 29.95 in 10.0 mi South 4.6 mph - N/A   Clear
8:53 AM 30.0 °F 21.1 °F 24.1 °F 79% 29.94 in 10.0 mi SSE 10.4 mph - N/A   Clear
9:53 AM 35.1 °F 27.9 °F 25.0 °F 67% 29.93 in 10.0 mi SSE 9.2 mph - N/A   Clear
10:53 AM 39.9 °F 34.5 °F 24.1 °F 53% 29.91 in 10.0 mi South 8.1 mph - N/A   Clear
11:53 AM 42.1 °F 38.4 °F 21.9 °F 45% 29.88 in 10.0 mi East 5.8 mph - N/A   Clear
12:53 PM 43.0 °F 37.7 °F 21.9 °F 43% 29.86 in 10.0 mi SE 9.2 mph - N/A   Mostly Cloudy
1:53 PM 43.0 °F 38.8 °F 19.9 °F 40% 29.85 in 10.0 mi ESE 6.9 mph - N/A   Overcast
2:53 PM 43.0 °F 36.0 °F 21.0 °F 42% 29.84 in 10.0 mi SE 13.8 mph - N/A   Overcast
3:53 PM 43.0 °F 36.0 °F 21.0 °F 42% 29.83 in 10.0 mi SSE 13.8 mph - N/A   Mostly Cloudy
4:53 PM 37.9 °F 29.2 °F 21.9 °F 53% 29.92 in 10.0 mi NNE 15.0 mph 19.6 mph N/A   Overcast
5:32 PM 30.0 °F 17.2 °F 25.0 °F 82% 29.85 in 10.0 mi NNE 20.7 mph - N/A   Overcast
5:48 PM 28.4 °F 15.8 °F 24.8 °F 86% 29.84 in 10.0 mi NE 18.4 mph 27.6 mph N/A   Overcast
5:53 PM 28.9 °F 15.8 °F 26.1 °F 89% 29.96 in 10.0 mi NE 20.7 mph 27.6 mph N/A   Overcast
6:29 PM 28.0 °F 14.6 °F 26.1 °F 92% 29.89 in 9.0 mi NE 20.7 mph 26.5 mph N/A   Overcast
6:53 PM 28.0 °F 14.9 °F 26.1 °F 92% 30.03 in 8.0 mi NE 19.6 mph 27.6 mph N/A   Overcast
7:53 PM 28.0 °F 16.5 °F 26.1 °F 92% 30.04 in 10.0 mi ENE 15.0 mph - N/A   Overcast
8:32 PM 28.0 °F 17.0 °F 26.1 °F 92% 29.96 in 10.0 mi ENE 13.8 mph - N/A   Overcast
8:53 PM 28.0 °F 17.5 °F 26.1 °F 92% 30.06 in 1.8 mi ENE 12.7 mph - 0.00 in Snow Light Snow
9:03 PM 28.0 °F 18.1 °F 26.1 °F 92% 29.98 in 1.2 mi East 11.5 mph - 0.00 in Snow Light Snow
9:10 PM 28.0 °F 17.5 °F 26.1 °F 92% 29.97 in 1.0 mi East 12.7 mph - 0.00 in Snow Light Snow
9:32 PM 27.0 °F 16.7 °F 26.1 °F 96% 29.99 in 1.0 mi East 11.5 mph - 0.01 in Snow Light Snow
9:41 PM 27.0 °F 16.7 °F 26.1 °F 96% 29.99 in 1.5 mi East 11.5 mph - 0.01 in Snow Light Snow
9:53 PM 27.0 °F 16.1 °F 25.0 °F 92% 30.07 in 1.5 mi East 12.7 mph - 0.01 in Snow Light Snow
10:04 PM 27.0 °F 16.1 °F 25.0 °F 92% 30.00 in 1.2 mi East 12.7 mph - 0.01 in Snow Light Snow
10:11 PM 27.0 °F 16.7 °F 25.0 °F 92% 30.00 in 1.0 mi East 11.5 mph - 0.01 in Snow Light Snow
10:18 PM 27.0 °F 16.7 °F 25.0 °F 92% 30.00 in 0.8 mi East 11.5 mph - 0.01 in Snow Light Snow
10:33 PM 27.0 °F 18.0 °F 25.0 °F 92% 30.00 in 1.0 mi ESE 9.2 mph - 0.02 in Snow Light Snow
10:41 PM 27.0 °F 20.5 °F 25.0 °F 92% 30.00 in 1.5 mi ESE 5.8 mph - 0.02 in Snow Light Snow
10:53 PM 26.1 °F 14.0 °F 25.0 °F 96% 30.05 in 2.5 mi ESE 15.0 mph - 0.02 in Snow Light Snow
11:01 PM 26.1 °F 16.8 °F 25.0 °F 96% 29.99 in 1.2 mi ESE 9.2 mph - 0.00 in Snow Light Snow
11:08 PM 26.1 °F 16.2 °F 25.0 °F 96% 29.99 in 0.8 mi ESE 10.4 mph - 0.00 in Snow Light Snow
11:17 PM 26.1 °F 13.6 °F 25.0 °F 96% 29.99 in 0.8 mi SE 16.1 mph - 0.01 in Snow Light Snow
11:22 PM 26.1 °F 16.2 °F 24.1 °F 92% 30.00 in 1.2 mi ESE 10.4 mph - 0.01 in Snow Light Snow
11:25 PM 26.1 °F 17.6 °F 25.0 °F 96% 30.00 in 1.5 mi ESE 8.1 mph - 0.01 in Snow Light Snow
11:28 PM 26.1 °F 18.4 °F 25.0 °F 96% 30.01 in 2.0 mi SE 6.9 mph - 0.01 in Snow Light Snow
11:42 PM 26.1 °F 15.0 °F 24.1 °F 92% 30.00 in 3.0 mi SE 12.7 mph - 0.01 in Snow Light Snow
11:53 PM 25.0 °F 12.2 °F 23.0 °F 92% 30.06 in 2.0 mi SE 16.1 mph - 0.01 in Snow Light Snow